logo meteosicilia

Diretta Meteo Kristianstad-Everod, Sveziamercoledì 22 maggio ore 13:20

Mappa
Sereno 20 °C Sereno 24 Ore: T.min 6 T.max 20
Ponente Est Km/h 33.3 Punto di rugiada: 14 °C Umidità: 68% Visibilità: 10 Km
Il sole sorge alle: 04:35 Il sole tramonta alle: 21:25
22 Maggio 2024 13:20 tempo osservato: Sereno Sereno 20 68 1015 vento: Nord E 33.3
22 Maggio 2024 12:50 tempo osservato: Sereno Sereno 20 68 1015 vento: Nord E 29.6
22 Maggio 2024 12:20 tempo osservato: Sereno Sereno 20 64 1015 vento: Nord E 33.3
22 Maggio 2024 11:50 tempo osservato: Sereno Sereno 20 64 1015 vento: Nord E 31.5
22 Maggio 2024 11:20 tempo osservato: Sereno Sereno 20 64 1015 vento: Nord E 31.5
22 Maggio 2024 10:50 tempo osservato: Sereno Sereno 19 68 1015 vento: Nord E 31.5
22 Maggio 2024 10:20 tempo osservato: Sereno Sereno 19 68 1015 vento: Nord E 25.9
22 Maggio 2024 09:50 tempo osservato: Sereno Sereno 18 67 1015 vento: Nord E 27.8
22 Maggio 2024 09:20 tempo osservato: Sereno Sereno 18 67 1015 vento: Nord E 24
22 Maggio 2024 08:50 tempo osservato: Sereno Sereno 18 67 1015 vento: Nord E 22.2
22 Maggio 2024 08:20 tempo osservato: Sereno Sereno 17 72 1015 vento: Nord E 14.8
22 Maggio 2024 07:50 tempo osservato: Sereno Sereno 16 72 1014 vento: Nord E/NE 18.5
22 Maggio 2024 07:20 tempo osservato: Sereno Sereno 15 72 1014 vento: Nord E/NE 16.7
22 Maggio 2024 06:50 tempo osservato: Sereno Sereno 15 72 1014 vento: Nord E/NE 11.1
22 Maggio 2024 06:20 tempo osservato: Sereno Sereno 12 81 1015 vento: Nord N 3.7
22 Maggio 2024 05:50 tempo osservato: Sereno Sereno 9 81 1015 vento: Nord N 0
22 Maggio 2024 05:20 tempo osservato: Sereno Sereno 8 81 1015 vento: Nord N 3.7
22 Maggio 2024 04:50 tempo osservato: Sereno Sereno 6 86 1015 vento: Nord N 3.7
22 Maggio 2024 04:20 tempo osservato: Sereno Sereno 7 87 1015 vento: Nord N 3.7
22 Maggio 2024 03:50 tempo osservato: Sereno Sereno 8 81 1015 vento: Nord N 3.7
22 Maggio 2024 03:20 tempo osservato: Sereno Sereno 8 75 1015 vento: Nord N 1.8
22 Maggio 2024 02:50 tempo osservato: Sereno Sereno 9 70 1015 vento: Nord N 3.7
22 Maggio 2024 02:20 tempo osservato: Sereno Sereno 9 66 1016 vento: Nord N 3.7
22 Maggio 2024 01:50 tempo osservato: Sereno Sereno 12 54 1016 vento: Nord N 5.5
22 Maggio 2024 01:20 tempo osservato: Sereno Sereno 11 57 1016 vento: Nord N 3.7
22 Maggio 2024 00:50 tempo osservato: Sereno Sereno 14 47 1016 vento: Nord NE 7.4
22 Maggio 2024 00:20 tempo osservato: Sereno Sereno 14 44 1017 vento: Nord NE 13
21 Maggio 2024 23:50 tempo osservato: Sereno Sereno 15 41 1017 vento: Nord E/NE 16.7
21 Maggio 2024 23:20 tempo osservato: Sereno Sereno 15 41 1017 vento: Nord E/NE 16.7
21 Maggio 2024 22:50 tempo osservato: Sereno Sereno 15 41 1017 vento: Nord E/NE 14.8
21 Maggio 2024 22:20 tempo osservato: Sereno Sereno 16 38 1017 vento: Nord E/NE 18.5
21 Maggio 2024 21:50 tempo osservato: Sereno Sereno 16 36 1017 vento: Nord E 14.8
21 Maggio 2024 21:20 tempo osservato: Sereno Sereno 16 38 1017 vento: Nord E 14.8
21 Maggio 2024 20:50 tempo osservato: Sereno Sereno 16 38 1017 vento: Nord E 14.8
21 Maggio 2024 20:20 tempo osservato: Sereno Sereno 17 39 1017 vento: Nord E 14.8
21 Maggio 2024 19:50 tempo osservato: Sereno Sereno 17 45 1016 vento: Nord E 18.5
21 Maggio 2024 19:20 tempo osservato: Sereno Sereno 18 45 1016 vento: Nord E 18.5
21 Maggio 2024 18:50 tempo osservato: Sereno Sereno 18 45 1016 vento: Nord E 25.9
21 Maggio 2024 18:20 tempo osservato: Sereno Sereno 18 45 1017 vento: Nord E 27.8
21 Maggio 2024 17:50 tempo osservato: Sereno Sereno 19 45 1017 vento: Nord E 29.6
21 Maggio 2024 17:20 tempo osservato: Sereno Sereno 19 48 1017 vento: Nord E 27.8
21 Maggio 2024 16:50 tempo osservato: Sereno Sereno 19 52 1017 vento: Nord E 25.9
21 Maggio 2024 16:20 tempo osservato: Sereno Sereno 18 55 1017 vento: Nord E 22.2
21 Maggio 2024 15:50 tempo osservato: Sereno Sereno 18 59 1017 vento: Nord E/SE 18.5
21 Maggio 2024 15:20 tempo osservato: Sereno Sereno 17 67 1018 vento: Nord E/SE 20.3
21 Maggio 2024 14:20 tempo osservato: Sereno Sereno 20 56 1018 vento: Nord E/SE 16.7
21 Maggio 2024 13:50 tempo osservato: Sereno Sereno 19 59 1018 vento: Nord E 14.8